Regional Weather Roundup
Issued by NWS

Home | Current Version | Previous Version | Graphics & Text | Print | Product List | Glossary On
Versions: 1 2 3 4 5 6 7 8 9 10 11 12 13 14 15 16 17 18 19 20 21 22 23 24 25 26 27 28 29 30 31 32 33 34 35 36 37 38 39 40 41 42 43 44 45 46 47 48 49 50
000
ASUS43 KLMK 230110
RWRKY
KENTUCKY REGIONAL WEATHER ROUNDUP
NATIONAL WEATHER SERVICE LOUISVILLE KY
900 PM EDT FRI SEP 22 2017

NOTE "FAIR" INDICATES FEW OR NO CLOUDS BELOW 12,000 FEET
WITH NO SIGNIFICANT WEATHER AND/OR OBSTRUCTIONS TO VISIBILITY.

KYZ001>023-026-027-061>063-070>075-230200-
WESTERN AND SOUTH CENTRAL KENTUCKY

CITY           SKY/WX    TMP DP  RH WIND       PRES   REMARKS
PADUCAH        CLEAR     76  68  76 CALM      29.99R
HENDERSON      CLEAR     74  69  85 CALM      30.02R
OWENSBORO      CLEAR     80  68  66 CALM      30.03R
HOPKINSVILLE   NOT AVBL
BOWLING GREEN  CLEAR     78  69  73 CALM      30.02R
GLASGOW        CLEAR     73  68  83 CALM      30.03R
$$

KYZ024-025-028>034-038-045-046-053-230200-
NORTH CENTRAL KENTUCKY

CITY           SKY/WX    TMP DP  RH WIND       PRES   REMARKS
LOUISVILLE/SDF PTCLDY    84  66  54 E3        30.03R
LOUISVILLE/LOU CLEAR     77  69  76 NE3       30.05R
FORT KNOX      CLEAR     71  69  93 N3        30.03R
$$

KYZ035>037-039>044-047>052-055>060-089>105-230200-
NORTHEAST KENTUCKY

CITY           SKY/WX    TMP DP  RH WIND       PRES   REMARKS
LEXINGTON      CLEAR     76  64  66 NE6       30.08R
COVINGTON      CLEAR     76  69  79 CALM      30.06R
FRANKFORT      CLEAR     72  65  78 CALM      30.05R
$$

KYZ054-064>069-076>088-106>120-230200-
SOUTHEAST KENTUCKY

CITY           SKY/WX    TMP DP  RH WIND       PRES   REMARKS
JACKSON        PTCLDY    73  64  73 CALM      30.09R
LONDON         PTCLDY    73  65  75 CALM      30.08R
SOMERSET       PTCLDY    72  64  78 CALM      30.07R
MIDDLESBORO    CLEAR     73  67  84 CALM      30.07S
MONTICELLO     PTCLDY    71  67  87 W8        30.07R
$$





USA.gov is the U.S. government's official web portal to all federal, state and local government web resources and services.